Weather History for Pineville, WV

Change the Weather History Date:

Saturday, January 19, 2013

  Actual Average (KBKW) Record (KBKW)
Temperature  
Mean Temperature 36 °F 31 °F  
Max Temperature 51 °F 39 °F 65 °F (1932)
Min Temperature 22 °F 23 °F -19 °F (1994)
Degree Days  
Heating Degree Days 28 34  
Month to date heating degree days 646  
Since 1 July heating degree days 2739  
Cooling Degree Days 0 0  
Month to date cooling degree days 0  
Year to date cooling degree days 0  
Moisture  
Dew Point 29 °F    
Average Humidity 87    
Maximum Humidity 100    
Minimum Humidity 46    
Precipitation  
Precipitation 0.00 in 0.09 in 1.07 in (2001)
Month to date precipitation 1.74  
Year to date precipitation 1.74  
Snow  
Snow 0.00 in - - ()
Month to date snowfall  
Since 1 September snowfall  
Snow Depth -    
Sea Level Pressure  
Sea Level Pressure 30.27 in    
Wind  
Wind Speed - (North)    
Max Wind Speed -    
Max Gust Speed -    
Visibility 10 miles    
Events      
T = Trace of Precipitation, MM = Missing Value Source: NWS Daily Summary

Daily Weather History Graph

Daily Weather History Graph

Search for Another Location

Airport:

Trip Planner

Search our weather history database for the weather conditions in past years. The results will help you decide how hot, cold, wet, or windy it might be!

Date:

Astronomy

Jan. 19, 2013 Rise Set
Actual Time 7:38 AM EST 5:36 PM EST
Civil Twilight 7:09 AM EST 6:04 PM EST
Nautical Twilight 6:38 AM EST 6:36 PM EST
Astronomical Twilight 6:06 AM EST 7:07 PM EST
Moon 12:00 PM EST 1:13 AM EST
Length of Visible Light 10h 54m
Length of Day
9h 57m
First Quarter, 57% of the Moon is Illuminated
Jan 19
First Quarter
Jan 26
Full
Feb 3
Last Quarter
Feb 10
New
Feb 17
First Quarter

Hourly Weather History & Observations

Time (EST) Temp. Dew Point Humidity Pressure Visibility Wind Dir Wind Speed Gust Speed Precip Events Conditions
12:15 AM 24.8 °F 24.8 °F 100% 30.41 in 10.0 mi North - - N/A   Clear
12:35 AM 25.0 °F 25.0 °F 100% 30.41 in 10.0 mi North - - N/A   Clear
12:55 AM 24.6 °F 24.6 °F 100% 30.41 in 10.0 mi North - - N/A   Clear
1:15 AM 24.6 °F 24.6 °F 100% 30.40 in 10.0 mi North - - N/A   Clear
1:35 AM 24.4 °F 24.4 °F 100% 30.41 in 10.0 mi North - - N/A   Clear
1:55 AM 24.3 °F 24.3 °F 100% 30.40 in 10.0 mi North - - N/A   Clear
2:15 AM 23.9 °F 23.7 °F 99% 30.40 in 10.0 mi North - - N/A   Clear
2:35 AM 23.9 °F 23.9 °F 100% 30.40 in 10.0 mi North - - N/A   Clear
2:55 AM 23.7 °F 23.5 °F 99% 30.40 in 10.0 mi North - - N/A   Clear
3:15 AM 23.9 °F 23.9 °F 100% 30.39 in 10.0 mi North - - N/A   Clear
3:35 AM 23.9 °F 23.7 °F 99% 30.39 in 10.0 mi North - - N/A   Clear
3:55 AM 23.5 °F 23.2 °F 99% 30.39 in 10.0 mi North - - N/A   Clear
4:15 AM 23.4 °F 23.0 °F 99% 30.38 in 10.0 mi North - - N/A   Clear
4:35 AM 23.0 °F 23.0 °F 100% 30.38 in 10.0 mi North - - N/A   Clear
4:55 AM 22.8 °F 22.6 °F 99% 30.38 in 10.0 mi North - - N/A   Clear
5:15 AM 23.2 °F 23.0 °F 99% 30.37 in 10.0 mi North - - N/A   Clear
5:35 AM 23.0 °F 23.0 °F 100% 30.37 in 10.0 mi North - - N/A   Clear
5:55 AM 22.8 °F 22.6 °F 99% 30.37 in 10.0 mi North - - N/A   Clear
6:15 AM 22.8 °F 22.3 °F 98% 30.37 in 10.0 mi North - - N/A   Clear
6:35 AM 22.8 °F 22.6 °F 99% 30.37 in 10.0 mi North - - N/A   Clear
7:35 AM 22.3 °F 22.1 °F 99% 30.39 in 10.0 mi North - - N/A   Clear
7:55 AM 22.5 °F 22.1 °F 99% 30.39 in 10.0 mi North - - N/A   Clear
8:15 AM 22.6 °F 22.3 °F 99% 30.39 in 10.0 mi North - - N/A   Clear
9:35 AM 29.8 °F 29.8 °F 100% 30.40 in 10.0 mi North - - N/A   Clear
10:35 AM 35.6 °F 34.7 °F 97% 30.39 in 10.0 mi North - - N/A   Clear
10:55 AM 37.4 °F 36.5 °F 97% 30.39 in 10.0 mi North - - N/A   Clear
11:15 AM 39.2 °F 37.9 °F 95% 30.37 in 10.0 mi North - - N/A   Clear
11:35 AM 40.5 °F 38.5 °F 93% 30.35 in 10.0 mi North - - N/A   Clear
11:55 AM 42.8 °F 38.8 °F 86% 30.34 in 10.0 mi North - - N/A   Clear
12:15 PM 44.1 °F 38.5 °F 81% 30.32 in 10.0 mi North - - N/A   Clear
12:35 PM 47.3 °F 35.8 °F 64% 30.30 in 10.0 mi North - - N/A   Clear
12:55 PM 49.3 °F 30.2 °F 48% 30.28 in 10.0 mi North - - N/A   Clear
1:15 PM 49.6 °F 30.7 °F 48% 30.27 in 10.0 mi North - - N/A   Clear
1:35 PM 50.4 °F 32.0 °F 49% 30.25 in 10.0 mi North - - N/A   Clear
1:55 PM 50.0 °F 35.4 °F 57% 30.24 in 10.0 mi North - - N/A   Clear
2:15 PM 50.9 °F 32.9 °F 50% 30.23 in 10.0 mi North - - N/A   Clear
2:35 PM 51.1 °F 30.9 °F 46% 30.22 in 10.0 mi North - - N/A   Clear
2:55 PM 50.4 °F 30.7 °F 47% 30.22 in 10.0 mi North - - N/A   Clear
3:15 PM 49.6 °F 29.7 °F 46% 30.20 in 10.0 mi North - - N/A   Clear
3:35 PM 49.8 °F 30.0 °F 47% 30.20 in 10.0 mi North - - N/A   Clear
3:55 PM 47.7 °F 30.4 °F 51% 30.19 in 10.0 mi North - - N/A   Clear
4:15 PM 44.8 °F 31.3 °F 59% 30.19 in 10.0 mi North - - N/A   Clear
4:35 PM 42.8 °F 32.0 °F 66% 30.18 in 10.0 mi North - - N/A   Clear
4:55 PM 39.4 °F 32.2 °F 75% 30.17 in 10.0 mi North - - N/A   Clear
5:15 PM 38.3 °F 32.7 °F 80% 30.17 in 10.0 mi North - - N/A   Clear
5:35 PM 37.2 °F 32.5 °F 83% 30.17 in 10.0 mi North - - N/A   Clear
5:55 PM 36.3 °F 32.2 °F 85% 30.16 in 10.0 mi North - - N/A   Clear
6:15 PM 35.4 °F 32.0 °F 87% 30.16 in 10.0 mi North - - N/A   Clear
6:35 PM 34.3 °F 32.0 °F 91% 30.16 in 10.0 mi North - - N/A   Clear
6:55 PM 33.8 °F 31.8 °F 92% 30.16 in 10.0 mi North - - N/A   Clear
7:15 PM 33.3 °F 32.0 °F 95% 30.16 in 10.0 mi North - - N/A   Clear
7:35 PM 32.9 °F 31.8 °F 96% 30.16 in 10.0 mi North - - N/A   Clear
7:55 PM 32.4 °F 31.6 °F 97% 30.16 in 10.0 mi North - - N/A   Clear
8:15 PM 32.0 °F 31.5 °F 98% 30.16 in 10.0 mi North - - N/A   Clear
8:35 PM 32.0 °F 31.1 °F 96% 30.16 in 10.0 mi North - - N/A   Clear
8:55 PM 32.0 °F 30.9 °F 96% 30.15 in 10.0 mi North - - N/A   Clear
9:15 PM 31.8 °F 30.7 °F 96% 30.13 in 10.0 mi North - - N/A   Clear
9:35 PM 31.8 °F 30.6 °F 95% 30.13 in 10.0 mi North - - N/A   Clear
9:55 PM 32.0 °F 30.4 °F 94% 30.13 in 10.0 mi North - - N/A   Clear
10:15 PM 31.8 °F 30.7 °F 96% 30.13 in 10.0 mi North - - N/A   Clear
10:35 PM 31.1 °F 29.8 °F 95% 30.13 in 10.0 mi North - - N/A   Clear
10:55 PM 30.7 °F 29.5 °F 95% 30.12 in 10.0 mi North - - N/A   Clear
11:15 PM 30.2 °F 29.3 °F 96% 30.12 in 10.0 mi North - - N/A   Clear
11:35 PM 30.2 °F 29.1 °F 96% 30.11 in 10.0 mi North - - N/A   Clear
11:55 PM 30.2 °F 29.3 °F 96% 30.11 in 10.0 mi North - - N/A   Clear